CZ-3C DEB, 40818

Orbit data source: Space-Track

CZ-3C DEB, 40818 is space debris in HEO originally from a launch on Sun, 31 Oct 2010 UTC launched from the Xichang Space Center, China (XSC). Debris objects in space refer to the collection of defunct objects orbiting the Earth. Examples of debris include non-operational satellites, rocket bodies, and fragments generated from explosions, collisions, or faulty payload assembly.

Loading next visibility...
Identifier
40818, 2010-057AK
Orbit
HEO
Country
Flag of CNCN / PRC
Related business
Manufacturer
CALT
Mission
Spacecraft
Bus & Motor
Unknown
Mass
Unknown
Launch date (UTC)
2010-10-31 (15 years ago)
Launch vehicle
Unknown
Launch site
Xichang Space Center, China (XSC)
Object type
Payload
Rocket body
Debris
Shape & HBR
Unknown shape, 0.3 m
Radar Cross Section
Small (<0.1 m²)

Expand to show TLE details & history
Last TLE update: 2 days ago

TLE from 2 days ago
0 CZ-3C DEB
1 40818U 10057AK  25345.66026432  .00000012  00000-0  18635-2 0  9990
2 40818  19.9590 161.5536 7103610  44.1992 354.3550  2.25733940 88747
Epoch: 2025-12-11T15:50Z
TLE epoch observation values (Epoch: 2025-12-11T15:50:46.837Z)
Latitude
0.00013°
Longitude
-156.84223°
Altitude
1,687.055 km
Speed
9.088 km/s
True Right ascension
10h 45m 51s
True Declination
0° 00' 00"
Sunlit
Object was in daylight at epoch
Visualization orbit readout
Latitude
Unknown
Longitude
Unknown
Altitude
Unknown
Speed
Unknown
Apparent Right ascension
Unknown
Apparent Declination
Unknown
Sunlit
N/A
Visualization observer readout
Local Sidereal Time
07:34:24
Azimuth
Unknown
Elevation
Unknown
Doppler factor
Unknown
Orbital elements
Apogee altitude
35,613.917 km
Perigee altitude
732.956 km
Semi-major axis
24,551.573 km
Eccentricity
0.71036
Inclination
19.959°
RAAN
161.5536°
Arg. of periapsis
44.1992°
True anomaly
316.42429°
Mean anomaly
354.355°
Eccentric anomaly
341.31783°
Mean motion
0.56419 °/min
Orbital period
638.08 mins
BSTAR
0.0018635
Loading maneuver chart data...
Computing Atmospheric mass density...
Loading historical data...
Loading historical data...
Loading historical data...
Loading historical data...
Loading historical data...
Loading historical data...
Loading historical data...

Documentation

Showing up to 5 results
|